Location: Belfast
(54.5830°N, 5.9330°W)
Time: 02:02:54
(UTC+00:00)

ISS - Pass Details

Date: 29 January 2021
Orbit: 417 x 422 km, 51.6° (Epoch: 25 February)

Event Time Altitude Azimuth Distance (km) Brightness Sun altitude
Rises 20:08:20 0° 276° (W) 2,380 1.4 -27.5°
Reaches altitude 10° 20:10:37 10° 264° (W) 1,514 0.0 -27.8°
Enters shadow 20:11:51 18° 250° (WSW) 1,112 -1.0 -28.0°
